Regional Weather Roundup
Issued by NWS

Home | Current Version | Previous Version | Graphics & Text | Print | Product List | Glossary On
Versions: 1 2 3 4 5 6 7 8 9 10 11 12 13 14 15 16 17 18 19 20 21 22 23 24 25 26 27 28 29 30 31 32 33 34 35 36 37 38 39 40 41 42 43 44 45 46 47 48 49 50
000
ASUS45 KSLC 310010
RWRUT

UTAH REGIONAL WEATHER ROUNDUP
NATIONAL WEATHER SERVICE SALT LAKE CITY UT
600 PM MDT SUN AUG 30 2015

UTZ001>011-023>025-310100-

NORTHERN UTAH

CITY           SKY/WX    TMP DP  RH WIND       PRES   REMARKS
BRIGHAM CITY   PTSUNNY   86  33  15 W8        29.93S
HILL AFB       PTSUNNY   82  43  25 W10       29.96F
LOGAN          MOSUNNY   86  38  18 W15       29.92F
OGDEN          PTSUNNY   85  42  22 SW6       29.93F
PROVO AIRPORT  PTSUNNY   81  57  44 W8        29.92S
SALT LAKE CITY PTSUNNY   87  44  22 N15       29.91F
VERNAL         CLOUDY    80  46  30 W6        30.03F
WENDOVER       MOSUNNY   84  39  20 SE5       29.92F
HEBER CITY     PTSUNNY   81  39  22 SW10G23   29.99S
WEST JORDAN    PTSUNNY   84  46  26 NW14      29.95F

$$

UTZ012>022-026-027-310100-

SOUTHERN/CENTRAL UTAH

CITY           SKY/WX    TMP DP  RH WIND       PRES   REMARKS
BLANDING       CLOUDY    82  43  25 S14G20    30.19R
BRYCE CANYON   PTSUNNY   74  46  36 SE14      30.23F
CEDAR CITY     PTSUNNY   81  41  24 SW10      30.04S
DELTA          CLOUDY    89  39  17 SW20      29.93F
HANKSVILLE     CLOUDY    86  50  28 NE12      29.96R
MILFORD        PTSUNNY   89  38  16 S21G26    29.97F
MOAB/CYNLANDS  TSTM      73  63  70 NW9       29.97R
PRICE          MOSUNNY   77  47  34 VRB5      30.06F
ST GEORGE      MOCLDY    99  45  15 W18G24    29.82S HX  94
KANAB          PTSUNNY   73  64  73 E14       30.09R

$$

REGIONAL REPORTS     COLORADO/ARIZONA

CITY           SKY/WX    TMP DP  RH WIND       PRES   REMARKS
CRAIG, CO      CLOUDY    73  51  46 MISG      30.14R
GRAND JUNCTION CLOUDY    84  47  27 NW10      29.97S
RIFLE          PTSUNNY   83  45  26 S18G29    30.04S
MONTROSE       PTSUNNY   75  54  47 SE9       30.10F
CORTEZ         SUNNY     80  47  31 S18       30.12S
PAGE, AZ       CLOUDY    79  56  45 SE10      30.00F
GRAND CANYON   CLOUDY    64  57  78 NE12G22   30.21R
KINGMAN        SUNNY     96  45  17 SW17G24   29.91F HX  92
FLAGSTAFF      PTSUNNY   72  51  47 S5        30.23F

$$

REGIONAL REPORTS    NEVADA/IDAHO/WYOMING

CITY           SKY/WX    TMP DP  RH WIND       PRES   REMARKS
LAS VEGAS, NV  PTSUNNY  100  32   9 SW17G24   29.74F HX  94
ELY            MOSUNNY   82  27  13 S9        30.04F
ELKO           MOSUNNY   81  27  14 W10G21    30.02F
POCATELLO, ID  MOSUNNY   79  35  20 W22G28    29.98R
BURLEY         MOSUNNY   76  34  21 W8        29.97S
EVANSTON, WY   PTSUNNY   76  39  26 SW23G30   30.11F
ROCK SPRINGS   CLOUDY    71  50  47 SW14      30.10S
KEMMERER       CLOUDY    73  34  23 SW20G28   30.12S

$$


USA.gov is the U.S. government's official web portal to all federal, state and local government web resources and services.